Pine River, MN

11:18 PM CST on February 23, 2017 (GMT -0600)
Pine River Regional

Weather History for KPWC - November, 2012

Change the Weather History Date:

Friday, November 9, 2012

  Actual Average Record
Temperature  
Mean Temperature 35 °F -  
Max Temperature 37 °F 38 °F 68 °F (1999)
Min Temperature 33 °F 23 °F 15 °F (2011)
Degree Days  
Heating Degree Days 30    
Moisture  
Dew Point 30 °F    
Average Humidity 79    
Maximum Humidity 87    
Minimum Humidity 75    
Precipitation  
Precipitation 0.00 in - - ()
Sea Level Pressure  
Sea Level Pressure 30.09 in    
Wind  
Wind Speed 10 mph (ENE)    
Max Wind Speed 17 mph    
Max Gust Speed 24 mph    
Visibility 10 miles    
Events      
Averages and records for this station are not official NWS values.
T = Trace of Precipitation, MM = Missing Value Source: NWS Daily Summary

Daily Weather History Graph

Daily Weather History Graph

Search for Another Location

Airport or City:

Trip Planner

Search our weather history database for the weather conditions in past years. The results will help you decide how hot, cold, wet, or windy it might be!

Date:

Astronomy

Nov. 09, 2012 Rise Set
Actual Time 7:12 AM CST 4:50 PM CST
Civil Twilight 6:39 AM CST 5:22 PM CST
Nautical Twilight 6:03 AM CST 5:58 PM CST
Astronomical Twilight 5:27 AM CST 6:34 PM CST
Moon 1:55 AM CST (11/9) 2:18 PM CST (11/9)
Length of Visible Light 10h 42m
Length of Day
9h 38m
Waning Crescent, 23% of the Moon is Illuminated
Nov 9
Waning Crescent
Nov 13
New
Nov 20
First Quarter
Nov 28
Full
Dec 6
Last Quarter

Hourly Weather History & Observations

Time (CST) Temp. Windchill Dew Point Humidity Pressure Visibility Wind Dir Wind Speed Gust Speed Precip Events Conditions
12:13 AM 37.4 °F 30.8 °F 33.8 °F 87% 30.10 in 10.0 mi North 9.2 mph - N/A   Overcast
12:33 AM 37.4 °F 30.3 °F 33.8 °F 87% 30.10 in 10.0 mi North 10.4 mph - N/A   Overcast
12:53 AM 37.4 °F 29.3 °F 33.8 °F 87% 30.10 in 10.0 mi North 12.7 mph - N/A   Overcast
1:13 AM 37.4 °F 31.4 °F 32.0 °F 81% 30.10 in 10.0 mi North 8.1 mph - N/A   Overcast
1:32 AM 37.4 °F 30.8 °F 32.0 °F 81% 30.11 in 10.0 mi North 9.2 mph - N/A   Overcast
1:52 AM 37.4 °F 30.3 °F 30.2 °F 75% 30.11 in 10.0 mi North 10.4 mph - N/A   Overcast
2:12 AM 37.4 °F 30.8 °F 32.0 °F 81% 30.11 in 10.0 mi North 9.2 mph - N/A   Overcast
2:32 AM 35.6 °F 27.5 °F 30.2 °F 81% 30.11 in 10.0 mi NNE 11.5 mph 17.3 mph N/A   Overcast
2:52 AM 35.6 °F 28.6 °F 30.2 °F 81% 30.12 in 10.0 mi NNE 9.2 mph - N/A   Overcast
3:12 AM 35.6 °F 28.6 °F 30.2 °F 81% 30.12 in 10.0 mi NNE 9.2 mph - N/A   Overcast
3:31 AM 35.6 °F 28.6 °F 30.2 °F 81% 30.13 in 10.0 mi NNE 9.2 mph 17.3 mph N/A   Overcast
3:53 AM 35.6 °F 28.0 °F 30.2 °F 81% 30.13 in 10.0 mi NNE 10.4 mph - N/A   Overcast
4:13 AM 35.6 °F 28.0 °F 30.2 °F 81% 30.13 in 10.0 mi NNE 10.4 mph 16.1 mph N/A   Overcast
4:33 AM 35.6 °F 26.6 °F 30.2 °F 81% 30.12 in 10.0 mi North 13.8 mph - N/A   Overcast
4:53 AM 35.6 °F 28.6 °F 30.2 °F 81% 30.13 in 10.0 mi NNE 9.2 mph - N/A   Overcast
5:12 AM 35.6 °F 29.2 °F 28.4 °F 75% 30.13 in 10.0 mi NE 8.1 mph - N/A   Overcast
5:33 AM 35.6 °F 29.9 °F 28.4 °F 75% 30.13 in 10.0 mi NE 6.9 mph - N/A   Overcast
5:53 AM 35.6 °F 29.9 °F 28.4 °F 75% 30.13 in 10.0 mi NE 6.9 mph - N/A   Overcast
6:12 AM 35.6 °F 31.7 °F 28.4 °F 75% 30.13 in 10.0 mi NE 4.6 mph - N/A   Overcast
6:33 AM 33.8 °F 27.7 °F 28.4 °F 81% 30.13 in 10.0 mi NE 6.9 mph - N/A   Overcast
6:52 AM 33.8 °F 25.3 °F 28.4 °F 81% 30.13 in 10.0 mi NE 11.5 mph 16.1 mph N/A   Overcast
7:10 AM 33.8 °F 26.4 °F 28.4 °F 81% 30.13 in 10.0 mi ENE 9.2 mph - N/A   Overcast
7:32 AM 33.8 °F 28.6 °F 28.4 °F 81% 30.14 in 10.0 mi ENE 5.8 mph - N/A   Overcast
7:53 AM 33.8 °F 27.7 °F 28.4 °F 81% 30.14 in 10.0 mi NE 6.9 mph - N/A   Overcast
8:12 AM 33.8 °F 26.4 °F 28.4 °F 81% 30.14 in 10.0 mi ENE 9.2 mph 16.1 mph N/A   Overcast
8:32 AM 35.6 °F 28.0 °F 28.4 °F 75% 30.14 in 10.0 mi ENE 10.4 mph - N/A   Overcast
8:53 AM 35.6 °F 28.6 °F 28.4 °F 75% 30.14 in 10.0 mi ENE 9.2 mph - N/A   Overcast
9:13 AM 35.6 °F 28.0 °F 28.4 °F 75% 30.13 in 10.0 mi East 10.4 mph - N/A   Overcast
9:33 AM 35.6 °F 28.0 °F 28.4 °F 75% 30.13 in 10.0 mi ENE 10.4 mph - N/A   Overcast
9:53 AM 35.6 °F 29.9 °F 28.4 °F 75% 30.13 in 10.0 mi ENE 6.9 mph - N/A   Overcast
10:12 AM 35.6 °F 28.6 °F 28.4 °F 75% 30.14 in 10.0 mi ENE 9.2 mph - N/A   Overcast
10:31 AM 35.6 °F 28.6 °F 28.4 °F 75% 30.14 in 10.0 mi East 9.2 mph - N/A   Overcast
10:52 AM 35.6 °F 28.6 °F 30.2 °F 81% 30.14 in 10.0 mi East 9.2 mph - N/A   Overcast
11:13 AM 37.4 °F 32.8 °F 30.2 °F 75% 30.14 in 10.0 mi ENE 5.8 mph - N/A   Overcast
11:33 AM 37.4 °F 30.3 °F 30.2 °F 75% 30.13 in 10.0 mi ENE 10.4 mph - N/A   Overcast
11:52 AM 37.4 °F 30.8 °F 30.2 °F 75% 30.12 in 10.0 mi ENE 9.2 mph - N/A   Overcast
12:13 PM 37.4 °F 30.3 °F 30.2 °F 75% 30.11 in 10.0 mi ENE 10.4 mph - N/A   Overcast
12:32 PM 37.4 °F 28.9 °F 30.2 °F 75% 30.09 in 10.0 mi ENE 13.8 mph - N/A   Overcast
12:53 PM 37.4 °F 30.8 °F 30.2 °F 75% 30.09 in 10.0 mi NE 9.2 mph - N/A   Overcast
1:12 PM 37.4 °F 29.8 °F 30.2 °F 75% 30.09 in 10.0 mi ENE 11.5 mph - N/A   Overcast
1:32 PM 37.4 °F 30.3 °F 30.2 °F 75% 30.08 in 10.0 mi ENE 10.4 mph - N/A   Overcast
1:52 PM 37.4 °F 28.9 °F 30.2 °F 75% 30.07 in 10.0 mi ENE 13.8 mph 18.4 mph N/A   Overcast
2:13 PM 37.4 °F 29.8 °F 30.2 °F 75% 30.07 in 10.0 mi ENE 11.5 mph - N/A   Overcast
2:32 PM 37.4 °F 31.4 °F 30.2 °F 75% 30.06 in 10.0 mi ENE 8.1 mph - N/A   Overcast
2:53 PM 37.4 °F 32.1 °F 30.2 °F 75% 30.07 in 10.0 mi ENE 6.9 mph - N/A   Overcast
3:12 PM 37.4 °F 30.8 °F 30.2 °F 75% 30.08 in 10.0 mi ENE 9.2 mph - N/A   Overcast
3:33 PM 37.4 °F 29.8 °F 30.2 °F 75% 30.07 in 10.0 mi ENE 11.5 mph 17.3 mph N/A   Overcast
3:52 PM 37.4 °F 30.8 °F 30.2 °F 75% 30.07 in 10.0 mi ENE 9.2 mph - N/A   Overcast
4:13 PM 37.4 °F 29.8 °F 30.2 °F 75% 30.07 in 10.0 mi ENE 11.5 mph 16.1 mph N/A   Overcast
4:32 PM 37.4 °F 28.9 °F 30.2 °F 75% 30.06 in 10.0 mi ENE 13.8 mph 17.3 mph N/A   Overcast
4:52 PM 35.6 °F 28.0 °F 30.2 °F 81% 30.06 in 10.0 mi ENE 10.4 mph - N/A   Overcast
5:12 PM 35.6 °F 27.5 °F 30.2 °F 81% 30.06 in 10.0 mi ENE 11.5 mph 16.1 mph N/A   Overcast
5:32 PM 35.6 °F 27.5 °F 30.2 °F 81% 30.06 in 10.0 mi ENE 11.5 mph 16.1 mph N/A   Overcast
5:53 PM 35.6 °F 28.0 °F 30.2 °F 81% 30.06 in 10.0 mi ENE 10.4 mph - N/A   Overcast
6:12 PM 37.4 °F 29.3 °F 30.2 °F 75% 30.06 in 10.0 mi ENE 12.7 mph 16.1 mph N/A   Overcast
6:33 PM 35.6 °F 28.6 °F 30.2 °F 81% 30.06 in 10.0 mi East 9.2 mph 17.3 mph N/A   Overcast
6:52 PM 37.4 °F 31.4 °F 32.0 °F 81% 30.07 in 10.0 mi East 8.1 mph 12.7 mph N/A   Overcast
7:12 PM 35.6 °F 25.5 °F 32.0 °F 87% 30.06 in 10.0 mi East 17.3 mph 21.9 mph N/A   Overcast
7:33 PM 35.6 °F 27.1 °F 32.0 °F 87% 30.06 in 10.0 mi East 12.7 mph 23.0 mph N/A   Overcast
7:52 PM 35.6 °F 26.6 °F 32.0 °F 87% 30.06 in 10.0 mi East 13.8 mph 19.6 mph N/A   Overcast
8:13 PM 35.6 °F 27.5 °F 32.0 °F 87% 30.06 in 10.0 mi East 11.5 mph 18.4 mph N/A   Overcast
8:33 PM 35.6 °F 26.6 °F 32.0 °F 87% 30.06 in 10.0 mi East 13.8 mph 20.7 mph N/A   Overcast
9:12 PM 37.4 °F 27.8 °F 32.0 °F 81% 30.05 in 10.0 mi East 17.3 mph 21.9 mph N/A   Overcast
9:33 PM 37.4 °F 28.9 °F 32.0 °F 81% 30.04 in 10.0 mi East 13.8 mph 21.9 mph N/A   Overcast
9:53 PM 37.4 °F 28.5 °F 32.0 °F 81% 30.05 in 10.0 mi East 15.0 mph 19.6 mph N/A   Overcast
10:13 PM 37.4 °F 29.3 °F 32.0 °F 81% 30.04 in 10.0 mi East 12.7 mph 23.0 mph N/A   Overcast
10:32 PM 37.4 °F 28.5 °F 32.0 °F 81% 30.03 in 10.0 mi East 15.0 mph 20.7 mph N/A   Overcast
11:12 PM 35.6 °F 25.5 °F 30.2 °F 81% 30.02 in 10.0 mi ESE 17.3 mph 24.2 mph N/A   Drizzle
11:33 PM 35.6 °F 27.5 °F 32.0 °F 87% 30.02 in 10.0 mi East 11.5 mph 21.9 mph N/A   Overcast
11:53 PM 35.6 °F 25.9 °F 32.0 °F 87% 30.00 in 10.0 mi East 16.1 mph 21.9 mph N/A   Overcast